Content
SEND FEEDBACK

Daily
Averages
Monthly
Summary
United States of America

MELROSE, MASSACHUSETTS


Home > North America > United States > Massachusetts
Elevation: 170 feet     Latitude: 42 27N     Longitude: 071 05W

WEATHER
 
SELECT A DAY
Number of Records: 205,570;   Date Range: 1/1/95 - 10/29/14
 
SHARE

PRINT THIS DATA

[ ← Previous Day ]
WEATHER ALMANAC - JUNE 21, 2013
[ Next Day → ]
[ °C ]   °F
Weather ElementAverageHighLow
Temperature71.8 °F84 °F (2:54 pm)61 °F (3:54 am)
Dewpoint57.8 °F63 °F (7:54 pm)52 °F (5:54 am)
Humidity62.3 %75 % (3:54 am)37 % (2:54 pm)
Barometer30.23 in30.25 in (1:54 am)30.19 in (4:54 pm)
Wind Speed8.3 mph12.7 mph (2:54 am)
Wind Gust17.3 mph (1:54 pm)
Weather ElementAverage
Visibility10 mi
Wind DirectionSSE (158.7 °)

Weather ElementTotal
Precipitation---
Cooling Degree Days7.5 (Base 65)
Growing Degree Days22.5 (Base 50)
Averaged from 23 records on June 21, 2013
WEATHER CONDITIONS BREAKOUT
WIND DIRECTION BREAKOUT
WEATHER BY HOUR - JUNE 21, 2013
[ °C ]   °F
Local TimeTemperatureDewpointHumidityBarometerVisibilityWind DirectionWind SpeedGust SpeedPrecipitationEventsConditions
1:54 AM62.1 °F53.1 °F72 %30.25 in10.0 miSW (220°)11.5 mphPartly Cloudy
2:54 AM62.1 °F53.1 °F72 %30.24 in10.0 miSW (220°)12.7 mphPartly Cloudy
3:54 AM61.0 °F53.1 °F75 %30.24 in10.0 miSW (220°)11.5 mphPartly Cloudy
4:54 AM61.0 °F53.1 °F75 %30.24 in10.0 miSW (220°)11.5 mphScattered Clouds
5:54 AM61.0 °F52.0 °F72 %30.25 in10.0 miSW (220°)9.2 mphScattered Clouds
6:54 AM64.0 °F52.0 °F65 %30.25 in10.0 miWSW (240°)10.4 mphScattered Clouds
7:54 AM66.9 °F54.0 °F63 %30.25 in10.0 miSW (230°)11.5 mphScattered Clouds
8:54 AM70.0 °F55.9 °F61 %30.24 in10.0 miWSW (240°)12.7 mphPartly Cloudy
9:54 AM73.0 °F57.0 °F57 %30.24 in10.0 miSW (230°)6.9 mphScattered Clouds
10:54 AM77.0 °F57.9 °F52 %30.24 in10.0 miWest (280°)11.5 mph16.1 mphScattered Clouds
11:54 AM79.0 °F59.0 °F50 %30.24 in10.0 miVariable3.5 mphScattered Clouds
12:54 PM82.0 °F60.1 °F47 %30.23 in10.0 miVariable4.6 mphScattered Clouds
1:54 PM81.0 °F59.0 °F47 %30.22 in10.0 miVariable5.8 mph17.3 mphMostly Cloudy
2:54 PM84.0 °F55.0 °F37 %30.20 in10.0 miSW (230°)9.2 mphMostly Cloudy
3:54 PM77.0 °F61.0 °F58 %30.20 in10.0 miEast (90°)9.2 mphMostly Cloudy
4:54 PM78.1 °F62.1 °F58 %30.19 in10.0 miESE (120°)8.1 mphMostly Cloudy
5:54 PM78.1 °F61.0 °F56 %30.19 in10.0 miSE (130°)6.9 mphMostly Cloudy
6:54 PM75.9 °F61.0 °F60 %30.20 in10.0 miENE (60°)8.1 mphMostly Cloudy
7:54 PM72.0 °F63.0 °F73 %30.21 in10.0 miEast (80°)4.6 mphScattered Clouds
8:54 PM73.0 °F63.0 °F71 %30.21 in10.0 miCalmScattered Clouds
9:54 PM73.9 °F63.0 °F68 %30.22 in9.0 miSSW (210°)8.1 mphScattered Clouds
10:54 PM69.1 °F61.0 °F75 %30.22 in10.0 miSSW (200°)4.6 mphScattered Clouds
11:54 PM70.0 °F59.0 °F68 %30.23 in10.0 miSSW (210°)9.2 mphScattered Clouds
Hourly data recorded from KBOS, located miles away from Melrose, Massachusetts







STORIES FROM OUR PARTNERS